Radiation Dose at Monitoring Post of Fukushima Daini Nuclear Power Station
Date,Time,MP-1(microSv/h),MP-2(microSv/h),MP-3(microSv/h),MP-4(microSv/h),MP-5(microSv/h),MP-6(microSv/h),MP-7(microSv/h),Wind Direction,Wind Velocity(m/s),Rain
2020/06/15,00:00,0.171,0.158,0.256,0.245,0.243,0.138,0.084,south-southwest,6.5,Yes
2020/06/15,00:10,0.174,0.157,0.254,0.243,0.245,0.138,0.084,south-southwest,6.7,No
2020/06/15,00:20,0.171,0.158,0.253,0.245,0.245,0.137,0.083,southwest,4.1,No
2020/06/15,00:30,0.172,0.157,0.256,0.243,0.243,0.137,0.083,southwest,4.0,No
2020/06/15,00:40,0.173,0.158,0.253,0.243,0.246,0.137,0.083,southwest,4.0,No
2020/06/15,00:50,0.171,0.157,0.254,0.244,0.242,0.136,0.083,southwest,5.3,No
2020/06/15,01:00,0.172,0.158,0.254,0.242,0.243,0.137,0.083,south-southwest,4.0,No
2020/06/15,01:10,0.172,0.157,0.254,0.245,0.246,0.137,0.083,southwest,4.1,No
2020/06/15,01:20,0.172,0.156,0.255,0.244,0.243,0.137,0.083,southwest,7.4,No
2020/06/15,01:30,0.174,0.158,0.252,0.243,0.244,0.138,0.083,south-southwest,6.3,No
2020/06/15,01:40,0.171,0.157,0.255,0.245,0.246,0.136,0.083,south-southwest,6.7,No
2020/06/15,01:50,0.172,0.157,0.254,0.242,0.242,0.136,0.084,south-southwest,5.9,No
2020/06/15,02:00,0.171,0.157,0.253,0.243,0.246,0.137,0.083,south-southwest,4.3,No
2020/06/15,02:10,0.171,0.158,0.255,0.244,0.245,0.136,0.083,southwest,3.9,No
2020/06/15,02:20,0.173,0.158,0.251,0.242,0.242,0.138,0.083,southwest,3.0,No
2020/06/15,02:30,0.171,0.157,0.256,0.245,0.246,0.137,0.083,southwest,1.4,No
2020/06/15,02:40,0.172,0.157,0.253,0.242,0.244,0.136,0.083,south-southeast,1.2,No
2020/06/15,02:50,0.173,0.157,0.254,0.245,0.243,0.136,0.083,south-southwest,1.5,No
2020/06/15,03:00,0.172,0.157,0.255,0.243,0.246,0.135,0.083,south,2.3,No
2020/06/15,03:10,0.173,0.158,0.252,0.243,0.243,0.136,0.083,south,2.4,No
2020/06/15,03:20,0.172,0.157,0.254,0.245,0.242,0.137,0.083,southeast,2.1,No
2020/06/15,03:30,0.172,0.157,0.253,0.242,0.246,0.136,0.083,south-southeast,0.8,No
2020/06/15,03:40,0.172,0.156,0.254,0.243,0.242,0.136,0.083,west,2.3,No
2020/06/15,03:50,0.170,0.158,0.255,0.243,0.244,0.137,0.082,southwest,1.6,No
2020/06/15,04:00,0.171,0.157,0.253,0.241,0.246,0.136,0.084,southwest,1.9,No
2020/06/15,04:10,0.173,0.157,0.255,0.246,0.244,0.137,0.082,east-northeast,1.7,No
2020/06/15,04:20,0.171,0.158,0.253,0.242,0.243,0.136,0.083,east,0.7,No
2020/06/15,04:30,0.173,0.158,0.253,0.243,0.245,0.136,0.083,north,1.2,No
2020/06/15,04:40,0.173,0.158,0.254,0.244,0.243,0.136,0.082,north-northwest,2.6,No
2020/06/15,04:50,0.171,0.157,0.252,0.242,0.244,0.135,0.084,north-northwest,1.1,No
2020/06/15,05:00,0.172,0.158,0.255,0.244,0.246,0.138,0.083,northeast,1.1,No
2020/06/15,05:10,0.172,0.158,0.254,0.243,0.244,0.137,0.083,north-northwest,2.6,No
2020/06/15,05:20,0.173,0.157,0.253,0.241,0.244,0.136,0.083,northwest,6.1,No
2020/06/15,05:30,0.173,0.158,0.255,0.245,0.246,0.137,0.083,west-northwest,5.9,No
2020/06/15,05:40,0.171,0.157,0.253,0.243,0.243,0.137,0.084,west,4.2,No
2020/06/15,05:50,0.172,0.157,0.254,0.242,0.242,0.136,0.084,west-northwest,5.4,No
2020/06/15,06:00,0.173,0.158,0.254,0.244,0.245,0.137,0.083,west-northwest,7.4,No
2020/06/15,06:10,0.171,0.157,0.253,0.241,0.245,0.137,0.083,west-northwest,8.2,No
2020/06/15,06:20,0.172,0.158,0.254,0.244,0.241,0.137,0.083,west-northwest,5.4,No
2020/06/15,06:30,0.174,0.158,0.253,0.245,0.246,0.136,0.082,west,5.8,No
2020/06/15,06:40,0.171,0.157,0.252,0.243,0.244,0.136,0.084,west,8.7,No
2020/06/15,06:50,0.172,0.159,0.255,0.243,0.242,0.137,0.082,west,7.2,No
2020/06/15,07:00,0.174,0.158,0.255,0.243,0.245,0.136,0.083,west-northwest,2.5,No
2020/06/15,07:10,0.173,0.158,0.252,0.242,0.246,0.135,0.084,northeast,1.6,No
2020/06/15,07:20,0.171,0.156,0.253,0.244,0.243,0.137,0.083,-,CALM,No
2020/06/15,07:30,0.174,0.158,0.254,0.245,0.242,0.137,0.082,east-northeast,0.9,No
2020/06/15,07:40,0.173,0.158,0.253,0.242,0.246,0.136,0.083,south-southwest,0.9,No
2020/06/15,07:50,0.172,0.157,0.253,0.242,0.245,0.138,0.084,south-southeast,1.9,No
2020/06/15,08:00,0.171,0.158,0.255,0.244,0.243,0.137,0.083,west,2.1,No
2020/06/15,08:10,0.174,0.158,0.257,0.244,0.243,0.136,0.083,west,1.8,No
2020/06/15,08:20,0.172,0.158,0.255,0.244,0.242,0.137,0.083,east-southeast,1.2,No
2020/06/15,08:30,0.171,0.158,0.254,0.243,0.243,0.137,0.083,southeast,0.9,No
2020/06/15,08:40,0.171,0.158,0.253,0.243,0.243,0.137,0.083,-,CALM,No
2020/06/15,08:50,0.171,0.158,0.254,0.243,0.245,0.137,0.083,north-northwest,1.1,No
2020/06/15,09:00,0.172,0.159,0.255,0.244,0.244,0.137,0.083,west-southwest,2.7,No
2020/06/15,09:10,0.171,0.158,0.254,0.244,0.244,0.136,0.083,west,8.3,No
2020/06/15,09:20,0.171,0.158,0.255,0.243,0.246,0.137,0.082,west,6.7,No
2020/06/15,09:30,0.172,0.159,0.255,0.244,0.246,0.137,0.083,west,8.9,No
2020/06/15,09:40,0.172,0.158,0.255,0.246,0.246,0.137,0.083,west-northwest,8.4,No
2020/06/15,09:50,0.173,0.158,0.256,0.245,0.245,0.137,0.083,west-northwest,6.4,No
2020/06/15,10:00,0.172,0.159,0.257,0.245,0.246,0.138,0.082,west,10.4,No
2020/06/15,10:10,0.173,0.158,0.256,0.246,0.246,0.137,0.083,west,9.2,No
2020/06/15,10:20,0.173,0.158,0.256,0.245,0.246,0.137,0.083,west-northwest,9.3,No
2020/06/15,10:30,0.173,0.160,0.257,0.245,0.244,0.138,0.084,west-northwest,5.4,No
2020/06/15,10:40,0.173,0.158,0.257,0.246,0.246,0.138,0.085,west-northwest,5.9,No
2020/06/15,10:50,0.174,0.160,0.257,0.247,0.246,0.138,0.085,west-northwest,7.0,No
2020/06/15,11:00,0.174,0.159,0.258,0.248,0.247,0.138,0.084,west,6.7,No
2020/06/15,11:10,0.174,0.159,0.257,0.248,0.246,0.138,0.084,west-northwest,7.8,No
2020/06/15,11:20,0.174,0.160,0.258,0.247,0.247,0.138,0.084,west,8.6,No
2020/06/15,11:30,0.175,0.160,0.258,0.248,0.248,0.139,0.085,west-northwest,9.5,No
2020/06/15,11:40,0.174,0.160,0.259,0.248,0.247,0.139,0.085,west-northwest,9.8,No
2020/06/15,11:50,0.175,0.160,0.259,0.249,0.248,0.140,0.084,west-northwest,7.4,No
2020/06/15,12:00,0.175,0.160,0.259,0.249,0.248,0.139,0.084,west-northwest,7.4,No
2020/06/15,12:10,0.175,0.160,0.259,0.249,0.248,0.139,0.086,west-northwest,9.2,No
2020/06/15,12:20,0.175,0.160,0.260,0.251,0.246,0.138,0.085,west,7.7,No
2020/06/15,12:30,0.175,0.161,0.260,0.250,0.247,0.139,0.084,west,8.6,No
2020/06/15,12:40,0.175,0.161,0.260,0.249,0.247,0.140,0.085,west,9.8,No
2020/06/15,12:50,0.174,0.161,0.260,0.249,0.247,0.138,0.084,west,7.8,No
2020/06/15,13:00,0.175,0.160,0.260,0.248,0.247,0.139,0.085,west,8.6,No
2020/06/15,13:10,0.175,0.160,0.259,0.248,0.248,0.138,0.085,west,7.1,No
2020/06/15,13:20,0.174,0.159,0.259,0.249,0.247,0.138,0.084,west,5.8,No
2020/06/15,13:30,0.175,0.160,0.260,0.247,0.247,0.138,0.084,west,7.5,No
2020/06/15,13:40,0.175,0.159,0.259,0.247,0.245,0.138,0.083,west,8.7,No
2020/06/15,13:50,0.176,0.159,0.261,0.248,0.248,0.139,0.085,west,8.7,No
2020/06/15,14:00,0.175,0.161,0.260,0.248,0.248,0.139,0.084,west,7.9,No
2020/06/15,14:10,0.176,0.161,0.260,0.249,0.248,0.139,0.084,west,8.4,No
2020/06/15,14:20,0.175,0.161,0.260,0.250,0.249,0.139,0.084,west-northwest,6.4,No
2020/06/15,14:30,0.175,0.160,0.260,0.249,0.248,0.140,0.085,west-northwest,7.9,No
2020/06/15,14:40,0.176,0.160,0.260,0.251,0.248,0.139,0.084,west-northwest,6.7,No
2020/06/15,14:50,0.176,0.161,0.260,0.251,0.249,0.138,0.084,west,7.5,No
2020/06/15,15:00,0.178,0.162,0.260,0.249,0.248,0.140,0.084,west-northwest,6.0,No
2020/06/15,15:10,0.175,0.161,0.260,0.249,0.248,0.139,0.084,west-northwest,2.3,No
2020/06/15,15:20,0.176,0.161,0.260,0.250,0.248,0.139,0.084,south,1.3,No
2020/06/15,15:30,0.175,0.161,0.261,0.248,0.246,0.139,0.084,-,CALM,No
2020/06/15,15:40,0.176,0.161,0.261,0.248,0.248,0.139,0.084,south,1.8,No
2020/06/15,15:50,0.175,0.161,0.260,0.248,0.245,0.139,0.083,south-southeast,3.4,No
2020/06/15,16:00,0.176,0.159,0.260,0.248,0.246,0.139,0.084,south-southwest,1.5,No
2020/06/15,16:10,0.174,0.160,0.260,0.247,0.246,0.138,0.083,south,3.3,No
2020/06/15,16:20,0.175,0.160,0.259,0.249,0.245,0.139,0.085,south-southeast,4.8,No
2020/06/15,16:30,0.175,0.160,0.259,0.247,0.246,0.139,0.085,south-southeast,3.9,No
2020/06/15,16:40,0.175,0.159,0.258,0.248,0.246,0.139,0.084,south,2.9,No
2020/06/15,16:50,0.174,0.161,0.258,0.251,0.247,0.138,0.084,south-southwest,3.9,No
2020/06/15,17:00,0.175,0.160,0.261,0.250,0.248,0.138,0.085,south,5.2,No
2020/06/15,17:10,0.174,0.160,0.264,0.250,0.249,0.138,0.084,south-southeast,6.3,No
2020/06/15,17:20,0.174,0.158,0.262,0.248,0.247,0.139,0.084,south,5.8,No
2020/06/15,17:30,0.174,0.160,0.261,0.248,0.247,0.140,0.084,south,4.9,No
2020/06/15,17:40,0.177,0.161,0.260,0.251,0.246,0.140,0.085,south,4.6,No
2020/06/15,17:50,0.176,0.161,0.258,0.251,0.249,0.139,0.085,south,6.1,No
2020/06/15,18:00,0.176,0.160,0.259,0.250,0.245,0.138,0.083,south-southeast,5.8,No
2020/06/15,18:10,0.175,0.160,0.263,0.249,0.246,0.139,0.085,south-southeast,6.3,No
2020/06/15,18:20,0.174,0.160,0.263,0.252,0.247,0.139,0.085,south,6.3,No
2020/06/15,18:30,0.174,0.162,0.261,0.251,0.246,0.140,0.084,south,6.0,No
2020/06/15,18:40,0.175,0.161,0.259,0.249,0.247,0.139,0.084,south,6.1,No
2020/06/15,18:50,0.177,0.160,0.262,0.249,0.251,0.138,0.085,south-southwest,5.3,No
2020/06/15,19:00,0.176,0.161,0.263,0.251,0.249,0.139,0.086,south-southwest,4.0,No
2020/06/15,19:10,0.175,0.160,0.261,0.250,0.246,0.139,0.084,southwest,3.9,No
2020/06/15,19:20,0.176,0.161,0.260,0.248,0.247,0.138,0.085,southwest,3.5,No
2020/06/15,19:30,0.178,0.162,0.264,0.251,0.250,0.140,0.085,west-southwest,3.2,No
2020/06/15,19:40,0.175,0.162,0.262,0.251,0.249,0.140,0.084,west-southwest,2.6,No
2020/06/15,19:50,0.176,0.161,0.259,0.249,0.246,0.139,0.085,west-southwest,2.8,No
2020/06/15,20:00,0.177,0.161,0.264,0.251,0.249,0.139,0.085,west-southwest,3.0,No
2020/06/15,20:10,0.175,0.161,0.262,0.251,0.251,0.140,0.085,west-southwest,2.8,No
2020/06/15,20:20,0.175,0.161,0.261,0.249,0.248,0.141,0.085,southwest,3.0,No
2020/06/15,20:30,0.178,0.162,0.264,0.250,0.248,0.140,0.085,west,1.3,No
2020/06/15,20:40,0.177,0.161,0.264,0.252,0.252,0.140,0.085,north-northeast,0.8,No
2020/06/15,20:50,0.175,0.161,0.260,0.248,0.250,0.139,0.084,-,CALM,No
2020/06/15,21:00,0.178,0.163,0.263,0.250,0.247,0.139,0.085,north-northwest,0.8,No
2020/06/15,21:10,0.177,0.160,0.264,0.252,0.248,0.140,0.084,northeast,0.8,No
2020/06/15,21:20,0.176,0.161,0.261,0.249,0.249,0.139,0.084,north,0.7,No
2020/06/15,21:30,0.177,0.163,0.264,0.251,0.249,0.141,0.086,-,CALM,No
2020/06/15,21:40,0.179,0.161,0.265,0.253,0.248,0.140,0.084,-,CALM,No
2020/06/15,21:50,0.177,0.164,0.263,0.250,0.251,0.140,0.086,southwest,4.6,Yes
2020/06/15,22:00,0.186,0.169,0.266,0.255,0.256,0.147,0.092,northwest,8.1,Yes
2020/06/15,22:10,0.187,0.171,0.269,0.259,0.255,0.150,0.095,west-northwest,5.9,Yes
2020/06/15,22:20,0.188,0.174,0.268,0.256,0.259,0.151,0.097,northwest,3.0,Yes
2020/06/15,22:30,0.190,0.173,0.272,0.258,0.257,0.152,0.095,northwest,1.9,No
2020/06/15,22:40,0.185,0.171,0.267,0.257,0.258,0.149,0.095,north-northwest,0.8,No
2020/06/15,22:50,0.184,0.170,0.268,0.256,0.256,0.149,0.094,-,CALM,No
2020/06/15,23:00,0.182,0.169,0.265,0.254,0.251,0.147,0.092,southwest,2.1,No
2020/06/15,23:10,0.181,0.166,0.264,0.251,0.254,0.144,0.091,south-southwest,1.9,No
2020/06/15,23:20,0.181,0.165,0.264,0.252,0.250,0.144,0.089,south,1.7,No
2020/06/15,23:30,0.177,0.164,0.260,0.249,0.249,0.142,0.088,south-southwest,1.5,No
2020/06/15,23:40,0.178,0.163,0.261,0.250,0.250,0.142,0.088,southwest,3.5,No
2020/06/15,23:50,0.177,0.163,0.259,0.250,0.249,0.141,0.087,southwest,2.9,No
